Time,TemperatureF,DewpointF,PressureIn,WindDirection,WindDirectionDegrees,WindSpeedMPH,WindSpeedGustMPH,Humidity,HourlyPrecipIn,Conditions,Clouds,dailyrainin,SoftwareType,DateUTC
2013-09-18 15:54:00,89.5,34.5,29.74,North,0,0.0,0.0,15,0.00,,,0.00,WUHU216HW,2013-09-18 22:54:00,
2013-09-18 15:56:00,89.3,36.1,29.73,North,0,0.0,0.0,16,0.00,,,0.00,WUHU216HW,2013-09-18 22:56:00,
2013-09-18 15:59:00,89.3,36.1,29.73,North,0,0.0,0.0,16,0.00,,,0.00,WUHU216HW,2013-09-18 22:59:00,
2013-09-18 16:02:00,89.3,36.1,29.73,North,0,0.0,0.0,16,0.00,,,0.00,WUHU216HW,2013-09-18 23:02:00,
2013-09-18 16:04:00,89.3,34.4,29.74,North,0,0.0,0.0,15,0.00,,,0.00,WUHU216HW,2013-09-18 23:04:00,
2013-09-18 16:05:00,89.3,34.4,29.74,North,0,0.0,0.0,15,0.00,,,0.00,WUHU216HW,2013-09-18 23:05:00,
2013-09-18 16:09:00,89.1,36.0,29.74,North,0,0.0,0.0,16,0.00,,,0.00,WUHU216HW,2013-09-18 23:09:00,
2013-09-18 16:10:00,89.1,37.7,29.74,North,0,0.0,0.0,17,0.00,,,0.00,WUHU216HW,2013-09-18 23:10:00,
2013-09-18 16:11:00,89.1,37.7,29.74,North,0,0.0,0.0,17,0.00,,,0.00,WUHU216HW,2013-09-18 23:11:00,
2013-09-18 16:14:00,89.1,39.5,29.74,North,0,0.0,0.0,18,0.00,,,0.00,WUHU216HW,2013-09-18 23:14:00,
2013-09-18 16:15:00,89.1,39.5,29.74,North,0,0.0,0.0,18,0.00,,,0.00,WUHU216HW,2013-09-18 23:15:00,
2013-09-18 16:16:00,89.1,39.5,29.74,North,0,0.0,0.0,18,0.00,,,0.00,WUHU216HW,2013-09-18 23:16:00,
2013-09-18 16:19:00,88.9,37.6,29.74,North,0,0.0,0.0,17,0.00,,,0.00,WUHU216HW,2013-09-18 23:19:00,
2013-09-18 16:21:00,88.9,39.3,29.74,North,0,0.0,0.0,18,0.00,,,0.00,WUHU216HW,2013-09-18 23:21:00,
2013-09-18 16:24:00,88.9,39.3,29.73,North,0,0.0,0.0,18,0.00,,,0.00,WUHU216HW,2013-09-18 23:24:00,
2013-09-18 16:26:00,88.9,39.3,29.73,North,0,0.0,0.0,18,0.00,,,0.00,WUHU216HW,2013-09-18 23:26:00,
2013-09-18 16:27:00,88.9,39.3,29.73,North,0,0.0,0.0,18,0.00,,,0.00,WUHU216HW,2013-09-18 23:27:00,
2013-09-18 16:29:00,88.9,39.3,29.73,North,0,0.0,0.0,18,0.00,,,0.00,WUHU216HW,2013-09-18 23:29:00,
2013-09-18 16:31:00,88.9,39.3,29.73,North,0,0.0,0.0,18,0.00,,,0.00,WUHU216HW,2013-09-18 23:31:00,
2013-09-18 16:32:00,88.7,37.4,29.73,North,0,0.0,0.0,17,0.00,,,0.00,WUHU216HW,2013-09-18 23:32:00,
2013-09-18 16:35:00,88.7,37.4,29.73,North,0,0.0,0.0,17,0.00,,,0.00,WUHU216HW,2013-09-18 23:35:00,
2013-09-18 16:37:00,88.7,39.2,29.73,North,0,0.0,0.0,18,0.00,,,0.00,WUHU216HW,2013-09-18 23:37:00,
2013-09-18 16:38:00,88.6,39.1,29.73,North,0,0.0,0.0,18,0.00,,,0.00,WUHU216HW,2013-09-18 23:38:00,
2013-09-18 16:40:00,88.6,39.1,29.73,North,0,0.0,0.0,18,0.00,,,0.00,WUHU216HW,2013-09-18 23:40:00,
2013-09-18 16:42:00,88.6,39.1,29.73,North,0,0.0,0.0,18,0.00,,,0.00,WUHU216HW,2013-09-18 23:42:00,
2013-09-18 16:45:00,88.6,40.8,29.73,North,0,0.0,0.0,19,0.00,,,0.00,WUHU216HW,2013-09-18 23:45:00,
2013-09-18 16:48:00,88.6,37.4,29.73,North,0,0.0,0.0,17,0.00,,,0.00,WUHU216HW,2013-09-18 23:48:00,
2013-09-18 16:51:00,88.4,38.9,29.73,North,0,0.0,0.0,18,0.00,,,0.00,WUHU216HW,2013-09-18 23:51:00,
2013-09-18 16:54:00,88.2,38.8,29.73,North,0,0.0,0.0,18,0.00,,,0.00,WUHU216HW,2013-09-18 23:54:00,
2013-09-18 16:56:00,88.2,38.8,29.73,North,0,0.0,0.0,18,0.00,,,0.00,WUHU216HW,2013-09-18 23:56:00,
2013-09-18 17:01:00,87.8,36.7,29.73,North,0,0.0,0.0,17,0.00,,,0.00,WUHU216HW,2013-09-19 00:01:00,
2013-09-18 17:02:00,87.8,38.5,29.73,North,0,0.0,0.0,18,0.00,,,0.00,WUHU216HW,2013-09-19 00:02:00,
2013-09-18 17:06:00,87.8,40.2,29.73,North,0,0.0,0.0,19,0.00,,,0.00,WUHU216HW,2013-09-19 00:06:00,
2013-09-18 17:07:00,87.8,40.2,29.73,North,0,0.0,0.0,19,0.00,,,0.00,WUHU216HW,2013-09-19 00:07:00,
2013-09-18 17:11:00,87.7,40.1,29.73,North,0,0.0,0.0,19,0.00,,,0.00,WUHU216HW,2013-09-19 00:11:00,
2013-09-18 17:12:00,87.7,40.1,29.73,North,0,0.0,0.0,19,0.00,,,0.00,WUHU216HW,2013-09-19 00:12:00,
2013-09-18 17:17:00,87.5,38.2,29.73,North,0,0.0,0.0,18,0.00,,,0.00,WUHU216HW,2013-09-19 00:17:00,
2013-09-18 17:19:00,87.5,39.9,29.73,North,0,0.0,0.0,19,0.00,,,0.00,WUHU216HW,2013-09-19 00:19:00,
2013-09-18 17:22:00,87.1,39.6,29.73,North,0,0.0,0.0,19,0.00,,,0.00,WUHU216HW,2013-09-19 00:22:00,
2013-09-18 17:23:00,87.1,39.6,29.73,North,0,0.0,0.0,19,0.00,,,0.00,WUHU216HW,2013-09-19 00:23:00,
2013-09-18 17:26:00,87.1,39.6,29.73,North,0,0.0,0.0,19,0.00,,,0.00,WUHU216HW,2013-09-19 00:26:00,
2013-09-18 17:27:00,87.1,39.6,29.73,North,0,0.0,0.0,19,0.00,,,0.00,WUHU216HW,2013-09-19 00:27:00,
2013-09-18 17:28:00,87.1,39.6,29.73,North,0,0.0,0.0,19,0.00,,,0.00,WUHU216HW,2013-09-19 00:28:00,
2013-09-18 17:31:00,87.1,39.6,29.73,North,0,0.0,0.0,19,0.00,,,0.00,WUHU216HW,2013-09-19 00:31:00,
2013-09-18 17:32:00,86.9,39.4,29.73,North,0,0.0,0.0,19,0.00,,,0.00,WUHU216HW,2013-09-19 00:32:00,
2013-09-18 17:33:00,86.9,37.7,29.73,North,0,0.0,0.0,18,0.00,,,0.00,WUHU216HW,2013-09-19 00:33:00,
2013-09-18 17:37:00,86.6,39.1,29.73,North,0,0.0,0.0,19,0.00,,,0.00,WUHU216HW,2013-09-19 00:37:00,
2013-09-18 17:38:00,86.6,39.1,29.73,North,0,0.0,0.0,19,0.00,,,0.00,WUHU216HW,2013-09-19 00:38:00,
2013-09-18 17:42:00,86.2,38.8,29.73,North,0,0.0,0.0,19,0.00,,,0.00,WUHU216HW,2013-09-19 00:42:00,
2013-09-18 17:43:00,86.2,38.8,29.73,North,0,0.0,0.0,19,0.00,,,0.00,WUHU216HW,2013-09-19 00:43:00,
2013-09-18 17:44:00,86.2,38.8,29.73,North,0,0.0,0.0,19,0.00,,,0.00,WUHU216HW,2013-09-19 00:44:00,
2013-09-18 17:48:00,85.9,38.4,29.73,North,0,0.0,0.0,19,0.00,,,0.00,WUHU216HW,2013-09-19 00:48:00,
2013-09-18 17:49:00,85.9,38.4,29.73,North,0,0.0,0.0,19,0.00,,,0.00,WUHU216HW,2013-09-19 00:49:00,
2013-09-18 17:53:00,85.7,40.1,29.73,North,0,0.0,0.0,20,0.00,,,0.00,WUHU216HW,2013-09-19 00:53:00,
2013-09-18 17:54:00,85.7,40.1,29.73,North,0,0.0,0.0,20,0.00,,,0.00,WUHU216HW,2013-09-19 00:54:00,
2013-09-18 17:59:00,85.5,41.0,29.73,North,0,0.0,0.0,21,0.00,,,0.00,WUHU216HW,2013-09-19 00:59:00,
2013-09-18 18:00:00,85.3,40.9,29.73,North,0,0.0,0.0,21,0.00,,,0.00,WUHU216HW,2013-09-19 01:00:00,
2013-09-18 18:04:00,85.3,40.9,29.73,North,0,0.0,0.0,21,0.00,,,0.00,WUHU216HW,2013-09-19 01:04:00,
2013-09-18 18:06:00,85.1,41.8,29.73,North,0,0.0,0.0,22,0.00,,,0.00,WUHU216HW,2013-09-19 01:06:00,
2013-09-18 18:11:00,84.8,41.5,29.73,North,0,0.0,0.0,22,0.00,,,0.00,WUHU216HW,2013-09-19 01:11:00,
2013-09-18 18:12:00,84.8,41.5,29.73,North,0,0.0,0.0,22,0.00,,,0.00,WUHU216HW,2013-09-19 01:12:00,
2013-09-18 18:16:00,84.6,42.4,29.73,North,0,0.0,0.0,23,0.00,,,0.00,WUHU216HW,2013-09-19 01:16:00,
2013-09-18 18:18:00,84.6,42.4,29.73,North,0,0.0,0.0,23,0.00,,,0.00,WUHU216HW,2013-09-19 01:18:00,
2013-09-18 18:21:00,84.2,42.0,29.73,North,0,0.0,0.0,23,0.00,,,0.00,WUHU216HW,2013-09-19 01:21:00,
2013-09-18 18:22:00,84.2,43.1,29.73,North,0,0.0,0.0,24,0.00,,,0.00,WUHU216HW,2013-09-19 01:22:00,
2013-09-18 18:23:00,84.1,43.0,29.73,North,0,0.0,0.0,24,0.00,,,0.00,WUHU216HW,2013-09-19 01:23:00,
2013-09-18 18:26:00,83.9,42.9,29.74,North,0,0.0,0.0,24,0.00,,,0.00,WUHU216HW,2013-09-19 01:26:00,
2013-09-18 18:28:00,83.7,42.7,29.74,North,0,0.0,0.0,24,0.00,,,0.00,WUHU216HW,2013-09-19 01:28:00,
2013-09-18 18:29:00,83.5,43.6,29.74,North,0,0.0,0.0,25,0.00,,,0.00,WUHU216HW,2013-09-19 01:29:00,
2013-09-18 18:31:00,83.3,43.5,29.74,North,0,0.0,0.0,25,0.00,,,0.00,WUHU216HW,2013-09-19 01:31:00,
2013-09-18 18:33:00,83.2,43.3,29.74,North,0,0.0,0.0,25,0.00,,,0.00,WUHU216HW,2013-09-19 01:33:00,
2013-09-18 18:34:00,83.0,43.1,29.74,North,0,0.0,0.0,25,0.00,,,0.00,WUHU216HW,2013-09-19 01:34:00,
2013-09-18 18:37:00,82.8,42.9,29.74,North,0,0.0,0.0,25,0.00,,,0.00,WUHU216HW,2013-09-19 01:37:00,
2013-09-18 18:38:00,82.6,42.9,29.74,North,0,0.0,0.0,25,0.00,,,0.00,WUHU216HW,2013-09-19 01:38:00,
2013-09-18 18:39:00,82.3,42.5,29.74,North,0,0.0,0.0,25,0.00,,,0.00,WUHU216HW,2013-09-19 01:39:00,
2013-09-18 18:42:00,82.1,42.4,29.74,North,0,0.0,0.0,25,0.00,,,0.00,WUHU216HW,2013-09-19 01:42:00,
2013-09-18 18:44:00,81.7,42.1,29.74,North,0,0.0,0.0,25,0.00,,,0.00,WUHU216HW,2013-09-19 01:44:00,
2013-09-18 18:45:00,81.5,40.9,29.74,North,0,0.0,0.0,24,0.00,,,0.00,WUHU216HW,2013-09-19 01:45:00,
2013-09-18 18:47:00,81.4,40.8,29.74,North,0,0.0,0.0,24,0.00,,,0.00,WUHU216HW,2013-09-19 01:47:00,
2013-09-18 18:50:00,81.0,40.5,29.74,North,0,0.0,0.0,24,0.00,,,0.00,WUHU216HW,2013-09-19 01:50:00,
2013-09-18 18:53:00,80.6,41.2,29.74,North,0,0.0,0.0,25,0.00,,,0.00,WUHU216HW,2013-09-19 01:53:00,
2013-09-18 18:55:00,80.5,41.0,29.74,North,0,0.0,0.0,25,0.00,,,0.00,WUHU216HW,2013-09-19 01:55:00,
2013-09-18 18:57:00,80.3,40.9,29.74,North,0,0.0,0.0,25,0.00,,,0.00,WUHU216HW,2013-09-19 01:57:00,
2013-09-18 18:58:00,80.3,39.9,29.74,North,0,0.0,0.0,24,0.00,,,0.00,WUHU216HW,2013-09-19 01:58:00,
2013-09-18 19:01:00,80.1,40.8,29.74,North,0,0.0,0.0,25,0.00,,,0.00,WUHU216HW,2013-09-19 02:01:00,
2013-09-18 19:02:00,79.9,40.6,29.74,North,0,0.0,0.0,25,0.00,,,0.00,WUHU216HW,2013-09-19 02:02:00,
2013-09-18 19:03:00,79.9,40.6,29.74,North,0,0.0,0.0,25,0.00,,,0.00,WUHU216HW,2013-09-19 02:03:00,
2013-09-18 19:07:00,79.6,39.3,29.74,North,0,0.0,0.0,24,0.00,,,0.00,WUHU216HW,2013-09-19 02:07:00,
2013-09-18 19:08:00,79.4,38.0,29.74,North,0,0.0,0.0,23,0.00,,,0.00,WUHU216HW,2013-09-19 02:08:00,
2013-09-18 19:13:00,79.0,37.7,29.74,North,0,0.0,0.0,23,0.00,,,0.00,WUHU216HW,2013-09-19 02:13:00,
2013-09-18 19:14:00,78.8,38.5,29.74,North,0,0.0,0.0,24,0.00,,,0.00,WUHU216HW,2013-09-19 02:14:00,
2013-09-18 19:16:00,78.7,37.4,29.74,North,0,0.0,0.0,23,0.00,,,0.00,WUHU216HW,2013-09-19 02:16:00,
2013-09-18 19:19:00,78.5,37.3,29.75,North,0,0.0,0.0,23,0.00,,,0.00,WUHU216HW,2013-09-19 02:19:00,
2013-09-18 19:21:00,78.5,37.3,29.75,North,0,0.0,0.0,23,0.00,,,0.00,WUHU216HW,2013-09-19 02:21:00,
2013-09-18 19:22:00,78.3,37.1,29.75,North,0,0.0,0.0,23,0.00,,,0.00,WUHU216HW,2013-09-19 02:22:00,
2013-09-18 19:24:00,78.1,36.9,29.75,North,0,0.0,0.0,23,0.00,,,0.00,WUHU216HW,2013-09-19 02:24:00,
2013-09-18 19:26:00,78.1,38.0,29.75,North,0,0.0,0.0,24,0.00,,,0.00,WUHU216HW,2013-09-19 02:26:00,
2013-09-18 19:27:00,78.1,38.0,29.75,North,0,0.0,0.0,24,0.00,,,0.00,WUHU216HW,2013-09-19 02:27:00,
2013-09-18 19:30:00,77.9,37.8,29.75,North,0,0.0,0.0,24,0.00,,,0.00,WUHU216HW,2013-09-19 02:30:00,
2013-09-18 19:32:00,77.8,37.7,29.75,North,0,0.0,0.0,24,0.00,,,0.00,WUHU216HW,2013-09-19 02:32:00,
2013-09-18 19:33:00,77.8,37.7,29.75,North,0,0.0,0.0,24,0.00,,,0.00,WUHU216HW,2013-09-19 02:33:00,
2013-09-18 19:35:00,77.8,37.7,29.75,North,0,0.0,0.0,24,0.00,,,0.00,WUHU216HW,2013-09-19 02:35:00,
2013-09-18 19:38:00,77.6,38.6,29.75,North,0,0.0,0.0,25,0.00,,,0.00,WUHU216HW,2013-09-19 02:38:00,
2013-09-18 19:39:00,77.6,38.6,29.75,North,0,0.0,0.0,25,0.00,,,0.00,WUHU216HW,2013-09-19 02:39:00,
2013-09-18 19:41:00,77.4,38.4,29.75,North,0,0.0,0.0,25,0.00,,,0.00,WUHU216HW,2013-09-19 02:41:00,
2013-09-18 19:44:00,77.2,38.4,29.75,North,0,0.0,0.0,25,0.00,,,0.00,WUHU216HW,2013-09-19 02:44:00,
2013-09-18 19:46:00,77.2,39.3,29.76,North,0,0.0,0.0,26,0.00,,,0.00,WUHU216HW,2013-09-19 02:46:00,
2013-09-18 19:49:00,77.0,39.3,29.76,North,0,0.0,0.0,26,0.00,,,0.00,WUHU216HW,2013-09-19 02:49:00,
2013-09-18 19:51:00,77.0,38.2,29.76,North,0,0.0,0.0,25,0.00,,,0.00,WUHU216HW,2013-09-19 02:51:00,
2013-09-18 19:55:00,76.9,39.1,29.76,North,0,0.0,0.0,26,0.00,,,0.00,WUHU216HW,2013-09-19 02:55:00,
2013-09-18 19:58:00,76.7,40.0,29.76,North,0,0.0,0.0,27,0.00,,,0.00,WUHU216HW,2013-09-19 02:58:00,
2013-09-18 20:01:00,76.5,40.9,29.76,North,0,0.0,0.0,28,0.00,,,0.00,WUHU216HW,2013-09-19 03:01:00,
2013-09-18 20:03:00,76.5,40.9,29.76,North,0,0.0,0.0,28,0.00,,,0.00,WUHU216HW,2013-09-19 03:03:00,
2013-09-18 20:06:00,76.3,40.7,29.76,North,0,0.0,0.0,28,0.00,,,0.00,WUHU216HW,2013-09-19 03:06:00,
2013-09-18 20:09:00,76.3,38.6,29.76,North,0,0.0,0.0,26,0.00,,,0.00,WUHU216HW,2013-09-19 03:09:00,
2013-09-18 20:11:00,76.1,39.5,29.76,North,0,0.0,0.0,27,0.00,,,0.00,WUHU216HW,2013-09-19 03:11:00,
2013-09-18 20:14:00,75.6,40.1,29.76,North,0,0.0,0.0,28,0.00,,,0.00,WUHU216HW,2013-09-19 03:14:00,
2013-09-18 20:16:00,75.6,40.1,29.76,North,0,0.0,0.0,28,0.00,,,0.00,WUHU216HW,2013-09-19 03:16:00,
2013-09-18 20:17:00,75.6,40.1,29.76,North,0,0.0,0.0,28,0.00,,,0.00,WUHU216HW,2013-09-19 03:17:00,
2013-09-18 20:19:00,75.2,40.8,29.76,North,0,0.0,0.0,29,0.00,,,0.00,WUHU216HW,2013-09-19 03:19:00,
2013-09-18 20:21:00,75.2,40.8,29.77,North,0,0.0,0.0,29,0.00,,,0.00,WUHU216HW,2013-09-19 03:21:00,
2013-09-18 20:22:00,75.2,39.7,29.77,North,0,0.0,0.0,28,0.00,,,0.00,WUHU216HW,2013-09-19 03:22:00,
2013-09-18 20:25:00,75.1,40.6,29.77,North,0,0.0,0.0,29,0.00,,,0.00,WUHU216HW,2013-09-19 03:25:00,
2013-09-18 20:27:00,74.9,40.4,29.77,North,0,0.0,0.0,29,0.00,,,0.00,WUHU216HW,2013-09-19 03:27:00,
2013-09-18 20:31:00,74.5,39.1,29.77,North,0,0.0,0.0,28,0.00,,,0.00,WUHU216HW,2013-09-19 03:31:00,
2013-09-18 20:32:00,74.5,39.1,29.77,North,0,0.0,0.0,28,0.00,,,0.00,WUHU216HW,2013-09-19 03:32:00,
2013-09-18 20:33:00,74.3,38.9,29.77,North,0,0.0,0.0,28,0.00,,,0.00,WUHU216HW,2013-09-19 03:33:00,
2013-09-18 20:37:00,74.2,38.8,29.77,North,0,0.0,0.0,28,0.00,,,0.00,WUHU216HW,2013-09-19 03:37:00,
2013-09-18 20:38:00,74.2,38.8,29.77,North,0,0.0,0.0,28,0.00,,,0.00,WUHU216HW,2013-09-19 03:38:00,
2013-09-18 20:43:00,74.0,37.6,29.77,North,0,0.0,0.0,27,0.00,,,0.00,WUHU216HW,2013-09-19 03:43:00,
2013-09-18 20:48:00,74.2,36.7,29.77,North,0,0.0,0.0,26,0.00,,,0.00,WUHU216HW,2013-09-19 03:48:00,
2013-09-18 20:49:00,74.2,36.7,29.77,North,0,0.0,0.0,26,0.00,,,0.00,WUHU216HW,2013-09-19 03:49:00,
2013-09-18 20:54:00,74.0,37.6,29.77,North,0,0.0,0.0,27,0.00,,,0.00,WUHU216HW,2013-09-19 03:54:00,
2013-09-18 20:55:00,73.8,37.5,29.77,North,0,0.0,0.0,27,0.00,,,0.00,WUHU216HW,2013-09-19 03:55:00,
2013-09-18 20:56:00,73.8,37.5,29.77,North,0,0.0,0.0,27,0.00,,,0.00,WUHU216HW,2013-09-19 03:56:00,
2013-09-18 20:59:00,73.6,38.3,29.77,North,0,0.0,0.0,28,0.00,,,0.00,WUHU216HW,2013-09-19 03:59:00,
2013-09-18 21:01:00,73.4,38.2,29.77,North,0,0.0,0.0,28,0.00,,,0.00,WUHU216HW,2013-09-19 04:01:00,
2013-09-18 21:03:00,73.4,38.2,29.77,North,0,0.0,0.0,28,0.00,,,0.00,WUHU216HW,2013-09-19 04:03:00,
2013-09-18 21:06:00,73.4,36.1,29.77,North,0,0.0,0.0,26,0.00,,,0.00,WUHU216HW,2013-09-19 04:06:00,
2013-09-18 21:07:00,73.4,36.1,29.77,North,0,0.0,0.0,26,0.00,,,0.00,WUHU216HW,2013-09-19 04:07:00,
2013-09-18 21:08:00,73.4,36.1,29.77,North,0,0.0,0.0,26,0.00,,,0.00,WUHU216HW,2013-09-19 04:08:00,
2013-09-18 21:09:00,73.4,36.1,29.77,North,0,0.0,0.0,26,0.00,,,0.00,WUHU216HW,2013-09-19 04:09:00,
2013-09-18 21:13:00,73.4,38.2,29.77,North,0,0.0,0.0,28,0.00,,,0.00,WUHU216HW,2013-09-19 04:13:00,
2013-09-18 21:14:00,73.4,38.2,29.77,North,0,0.0,0.0,28,0.00,,,0.00,WUHU216HW,2013-09-19 04:14:00,
2013-09-18 21:18:00,72.7,37.5,29.77,North,0,0.0,0.0,28,0.00,,,0.00,WUHU216HW,2013-09-19 04:18:00,
2013-09-18 21:19:00,72.7,37.5,29.78,North,0,0.0,0.0,28,0.00,,,0.00,WUHU216HW,2013-09-19 04:19:00,
2013-09-18 21:20:00,72.5,37.4,29.77,North,0,0.0,0.0,28,0.00,,,0.00,WUHU216HW,2013-09-19 04:20:00,
2013-09-18 21:21:00,72.5,37.4,29.77,North,0,0.0,0.0,28,0.00,,,0.00,WUHU216HW,2013-09-19 04:21:00,
2013-09-18 21:24:00,72.5,37.4,29.77,North,0,0.0,0.0,28,0.00,,,0.00,WUHU216HW,2013-09-19 04:24:00,
2013-09-18 21:26:00,72.4,38.3,29.78,North,0,0.0,0.0,29,0.00,,,0.00,WUHU216HW,2013-09-19 04:26:00,
2013-09-18 21:27:00,72.4,38.3,29.78,North,0,0.0,0.0,29,0.00,,,0.00,WUHU216HW,2013-09-19 04:27:00,
2013-09-18 21:29:00,72.4,38.3,29.78,North,0,0.0,0.0,29,0.00,,,0.00,WUHU216HW,2013-09-19 04:29:00,
2013-09-18 21:30:00,72.4,38.3,29.78,North,0,0.0,0.0,29,0.00,,,0.00,WUHU216HW,2013-09-19 04:30:00,
2013-09-18 21:31:00,72.2,38.1,29.78,North,0,0.0,0.0,29,0.00,,,0.00,WUHU216HW,2013-09-19 04:31:00,
2013-09-18 21:32:00,72.2,38.1,29.78,North,0,0.0,0.0,29,0.00,,,0.00,WUHU216HW,2013-09-19 04:32:00,
2013-09-18 21:35:00,72.0,38.0,29.78,North,0,0.0,0.0,29,0.00,,,0.00,WUHU216HW,2013-09-19 04:35:00,
2013-09-18 21:36:00,72.0,38.0,29.78,North,0,0.0,0.0,29,0.00,,,0.00,WUHU216HW,2013-09-19 04:36:00,
2013-09-18 21:37:00,72.0,38.0,29.78,North,0,0.0,0.0,29,0.00,,,0.00,WUHU216HW,2013-09-19 04:37:00,
2013-09-18 21:38:00,72.0,38.0,29.78,North,0,0.0,0.0,29,0.00,,,0.00,WUHU216HW,2013-09-19 04:38:00,
2013-09-18 21:41:00,72.0,38.0,29.78,North,0,0.0,0.0,29,0.00,,,0.00,WUHU216HW,2013-09-19 04:41:00,
2013-09-18 21:42:00,71.8,37.8,29.78,North,0,0.0,0.0,29,0.00,,,0.00,WUHU216HW,2013-09-19 04:42:00,
2013-09-18 21:43:00,71.8,37.8,29.78,North,0,0.0,0.0,29,0.00,,,0.00,WUHU216HW,2013-09-19 04:43:00,
2013-09-18 21:47:00,71.6,37.7,29.78,North,0,0.0,0.0,29,0.00,,,0.00,WUHU216HW,2013-09-19 04:47:00,
2013-09-18 21:48:00,71.6,37.7,29.78,North,0,0.0,0.0,29,0.00,,,0.00,WUHU216HW,2013-09-19 04:48:00,
2013-09-18 21:49:00,71.6,37.7,29.78,North,0,0.0,0.0,29,0.00,,,0.00,WUHU216HW,2013-09-19 04:49:00,
2013-09-18 21:53:00,71.6,37.7,29.78,North,0,0.0,0.0,29,0.00,,,0.00,WUHU216HW,2013-09-19 04:53:00,
2013-09-18 21:54:00,71.6,37.7,29.78,North,0,0.0,0.0,29,0.00,,,0.00,WUHU216HW,2013-09-19 04:54:00,
2013-09-18 21:58:00,71.3,38.3,29.78,North,0,0.0,0.0,30,0.00,,,0.00,WUHU216HW,2013-09-19 04:58:00,
2013-09-18 21:59:00,71.1,38.3,29.78,North,0,0.0,0.0,30,0.00,,,0.00,WUHU216HW,2013-09-19 04:59:00,
2013-09-18 22:00:00,71.1,38.3,29.78,North,0,0.0,0.0,30,0.00,,,0.00,WUHU216HW,2013-09-19 05:00:00,
2013-09-18 22:03:00,70.9,38.1,29.78,North,0,0.0,0.0,30,0.00,,,0.00,WUHU216HW,2013-09-19 05:03:00,
2013-09-18 22:05:00,70.9,38.1,29.78,North,0,0.0,0.0,30,0.00,,,0.00,WUHU216HW,2013-09-19 05:05:00,
2013-09-18 22:06:00,70.9,38.1,29.78,North,0,0.0,0.0,30,0.00,,,0.00,WUHU216HW,2013-09-19 05:06:00,
2013-09-18 22:08:00,70.7,37.9,29.78,North,0,0.0,0.0,30,0.00,,,0.00,WUHU216HW,2013-09-19 05:08:00,
2013-09-18 22:10:00,70.7,37.9,29.78,North,0,0.0,0.0,30,0.00,,,0.00,WUHU216HW,2013-09-19 05:10:00,
2013-09-18 22:11:00,70.7,37.9,29.78,North,0,0.0,0.0,30,0.00,,,0.00,WUHU216HW,2013-09-19 05:11:00,
2013-09-18 22:12:00,70.7,37.9,29.78,North,0,0.0,0.0,30,0.00,,,0.00,WUHU216HW,2013-09-19 05:12:00,
2013-09-18 22:14:00,70.7,37.9,29.78,North,0,0.0,0.0,30,0.00,,,0.00,WUHU216HW,2013-09-19 05:14:00,
2013-09-18 22:15:00,70.7,37.9,29.78,North,0,0.0,0.0,30,0.00,,,0.00,WUHU216HW,2013-09-19 05:15:00,
2013-09-18 22:17:00,70.7,37.9,29.78,North,0,0.0,0.0,30,0.00,,,0.00,WUHU216HW,2013-09-19 05:17:00,
2013-09-18 22:19:00,70.7,39.3,29.78,North,0,0.0,0.0,32,0.00,,,0.00,WUHU216HW,2013-09-19 05:19:00,
2013-09-18 22:21:00,70.7,38.6,29.78,North,0,0.0,0.0,31,0.00,,,0.00,WUHU216HW,2013-09-19 05:21:00,
2013-09-18 22:22:00,70.7,38.6,29.78,North,0,0.0,0.0,31,0.00,,,0.00,WUHU216HW,2013-09-19 05:22:00,
2013-09-18 22:24:00,70.9,38.8,29.78,North,0,0.0,0.0,31,0.00,,,0.00,WUHU216HW,2013-09-19 05:24:00,
2013-09-18 22:26:00,70.7,38.6,29.78,North,0,0.0,0.0,31,0.00,,,0.00,WUHU216HW,2013-09-19 05:26:00,
2013-09-18 22:27:00,70.7,38.6,29.78,North,0,0.0,0.0,31,0.00,,,0.00,WUHU216HW,2013-09-19 05:27:00,
2013-09-18 22:29:00,70.7,39.3,29.78,North,0,0.0,0.0,32,0.00,,,0.00,WUHU216HW,2013-09-19 05:29:00,
2013-09-18 22:30:00,70.6,39.3,29.78,North,0,0.0,0.0,32,0.00,,,0.00,WUHU216HW,2013-09-19 05:30:00,
2013-09-18 22:32:00,70.6,39.3,29.78,North,0,0.0,0.0,32,0.00,,,0.00,WUHU216HW,2013-09-19 05:32:00,
2013-09-18 22:33:00,70.2,38.9,29.78,North,0,0.0,0.0,32,0.00,,,0.00,WUHU216HW,2013-09-19 05:33:00,
2013-09-18 22:35:00,70.2,38.9,29.78,North,0,0.0,0.0,32,0.00,,,0.00,WUHU216HW,2013-09-19 05:35:00,
2013-09-18 22:36:00,70.2,38.9,29.78,North,0,0.0,0.0,32,0.00,,,0.00,WUHU216HW,2013-09-19 05:36:00,
2013-09-18 22:38:00,70.2,38.9,29.78,North,0,0.0,0.0,32,0.00,,,0.00,WUHU216HW,2013-09-19 05:38:00,
2013-09-18 22:39:00,70.4,39.1,29.78,North,0,0.0,0.0,32,0.00,,,0.00,WUHU216HW,2013-09-19 05:39:00,
2013-09-18 22:41:00,70.4,39.1,29.78,North,0,0.0,0.0,32,0.00,,,0.00,WUHU216HW,2013-09-19 05:41:00,
2013-09-18 22:42:00,70.6,39.3,29.78,North,0,0.0,0.0,32,0.00,,,0.00,WUHU216HW,2013-09-19 05:42:00,
2013-09-18 22:43:00,70.6,39.3,29.78,North,0,0.0,0.0,32,0.00,,,0.00,WUHU216HW,2013-09-19 05:43:00,
2013-09-18 22:44:00,70.6,39.3,29.78,North,0,0.0,0.0,32,0.00,,,0.00,WUHU216HW,2013-09-19 05:44:00,
2013-09-18 22:46:00,70.4,39.1,29.78,North,0,0.0,0.0,32,0.00,,,0.00,WUHU216HW,2013-09-19 05:46:00,
2013-09-18 22:47:00,70.4,39.1,29.78,North,0,0.0,0.0,32,0.00,,,0.00,WUHU216HW,2013-09-19 05:47:00,
2013-09-18 22:49:00,70.2,38.9,29.78,North,0,0.0,0.0,32,0.00,,,0.00,WUHU216HW,2013-09-19 05:49:00,
2013-09-18 22:52:00,69.8,39.3,29.78,North,0,0.0,0.0,33,0.00,,,0.00,WUHU216HW,2013-09-19 05:52:00,
2013-09-18 22:53:00,69.7,38.4,29.78,North,0,0.0,0.0,32,0.00,,,0.00,WUHU216HW,2013-09-19 05:53:00,
2013-09-18 22:54:00,69.7,38.4,29.78,North,0,0.0,0.0,32,0.00,,,0.00,WUHU216HW,2013-09-19 05:54:00,
2013-09-18 22:57:00,69.5,38.3,29.78,North,0,0.0,0.0,32,0.00,,,0.00,WUHU216HW,2013-09-19 05:57:00,
2013-09-18 22:58:00,69.5,38.3,29.78,North,0,0.0,0.0,32,0.00,,,0.00,WUHU216HW,2013-09-19 05:58:00,
2013-09-18 22:59:00,69.5,38.3,29.78,North,0,0.0,0.0,32,0.00,,,0.00,WUHU216HW,2013-09-19 05:59:00,
2013-09-18 23:00:00,69.5,38.3,29.78,North,0,0.0,0.0,32,0.00,,,0.00,WUHU216HW,2013-09-19 06:00:00,
2013-09-18 23:03:00,69.5,39.0,29.79,North,0,0.0,0.0,33,0.00,,,0.00,WUHU216HW,2013-09-19 06:03:00,
2013-09-18 23:04:00,69.5,39.0,29.78,North,0,0.0,0.0,33,0.00,,,0.00,WUHU216HW,2013-09-19 06:04:00,
2013-09-18 23:05:00,69.3,38.8,29.78,North,0,0.0,0.0,33,0.00,,,0.00,WUHU216HW,2013-09-19 06:05:00,
2013-09-18 23:06:00,69.1,39.4,29.78,North,0,0.0,0.0,34,0.00,,,0.00,WUHU216HW,2013-09-19 06:06:00,
2013-09-18 23:09:00,68.9,38.5,29.78,North,0,0.0,0.0,33,0.00,,,0.00,WUHU216HW,2013-09-19 06:09:00,
2013-09-18 23:10:00,68.9,39.3,29.78,North,0,0.0,0.0,34,0.00,,,0.00,WUHU216HW,2013-09-19 06:10:00,
2013-09-18 23:11:00,68.9,39.3,29.78,North,0,0.0,0.0,34,0.00,,,0.00,WUHU216HW,2013-09-19 06:11:00,
2013-09-18 23:12:00,69.1,39.4,29.78,North,0,0.0,0.0,34,0.00,,,0.00,WUHU216HW,2013-09-19 06:12:00,
2013-09-18 23:14:00,69.1,39.4,29.78,North,0,0.0,0.0,34,0.00,,,0.00,WUHU216HW,2013-09-19 06:14:00,
2013-09-18 23:15:00,69.1,39.4,29.78,North,0,0.0,0.0,34,0.00,,,0.00,WUHU216HW,2013-09-19 06:15:00,
2013-09-18 23:16:00,69.1,39.4,29.78,North,0,0.0,0.0,34,0.00,,,0.00,WUHU216HW,2013-09-19 06:16:00,
2013-09-18 23:17:00,69.1,38.6,29.78,North,0,0.0,0.0,33,0.00,,,0.00,WUHU216HW,2013-09-19 06:17:00,
2013-09-18 23:19:00,69.1,39.4,29.79,North,0,0.0,0.0,34,0.00,,,0.00,WUHU216HW,2013-09-19 06:19:00,
2013-09-18 23:21:00,69.1,39.4,29.79,North,0,0.0,0.0,34,0.00,,,0.00,WUHU216HW,2013-09-19 06:21:00,
2013-09-18 23:24:00,68.9,39.3,29.79,North,0,0.0,0.0,34,0.00,,,0.00,WUHU216HW,2013-09-19 06:24:00,
2013-09-18 23:27:00,68.6,39.6,29.79,North,0,0.0,0.0,35,0.00,,,0.00,WUHU216HW,2013-09-19 06:27:00,
2013-09-18 23:30:00,68.4,39.5,29.79,North,0,0.0,0.0,35,0.00,,,0.00,WUHU216HW,2013-09-19 06:30:00,
2013-09-18 23:31:00,68.2,39.3,29.79,North,0,0.0,0.0,35,0.00,,,0.00,WUHU216HW,2013-09-19 06:31:00,
2013-09-18 23:32:00,68.2,39.3,29.79,North,0,0.0,0.0,35,0.00,,,0.00,WUHU216HW,2013-09-19 06:32:00,
2013-09-18 23:36:00,68.0,39.2,29.79,North,0,0.0,0.0,35,0.00,,,0.00,WUHU216HW,2013-09-19 06:36:00,
2013-09-18 23:38:00,67.9,39.0,29.79,North,0,0.0,0.0,35,0.00,,,0.00,WUHU216HW,2013-09-19 06:38:00,
2013-09-18 23:42:00,67.7,40.3,29.79,North,0,0.0,0.0,37,0.00,,,0.00,WUHU216HW,2013-09-19 06:42:00,
2013-09-18 23:44:00,67.7,40.3,29.79,North,0,0.0,0.0,37,0.00,,,0.00,WUHU216HW,2013-09-19 06:44:00,
2013-09-18 23:46:00,67.7,40.3,29.79,North,0,0.0,0.0,37,0.00,,,0.00,WUHU216HW,2013-09-19 06:46:00,
2013-09-18 23:47:00,67.5,40.1,29.79,North,0,0.0,0.0,37,0.00,,,0.00,WUHU216HW,2013-09-19 06:47:00,
2013-09-18 23:49:00,67.5,40.1,29.79,North,0,0.0,0.0,37,0.00,,,0.00,WUHU216HW,2013-09-19 06:49:00,
2013-09-18 23:50:00,67.5,40.1,29.79,North,0,0.0,0.0,37,0.00,,,0.00,WUHU216HW,2013-09-19 06:50:00,
2013-09-18 23:51:00,67.5,40.1,29.79,North,0,0.0,0.0,37,0.00,,,0.00,WUHU216HW,2013-09-19 06:51:00,
2013-09-18 23:52:00,67.5,40.1,29.79,North,0,0.0,0.0,37,0.00,,,0.00,WUHU216HW,2013-09-19 06:52:00,
2013-09-18 23:54:00,67.7,40.3,29.79,North,0,0.0,0.0,37,0.00,,,0.00,WUHU216HW,2013-09-19 06:54:00,
2013-09-18 23:55:00,67.7,40.3,29.79,North,0,0.0,0.0,37,0.00,,,0.00,WUHU216HW,2013-09-19 06:55:00,
2013-09-18 23:57:00,67.7,40.3,29.79,North,0,0.0,0.0,37,0.00,,,0.00,WUHU216HW,2013-09-19 06:57:00,
2013-09-18 23:58:00,67.7,40.3,29.79,North,0,0.0,0.0,37,0.00,,,0.00,WUHU216HW,2013-09-19 06:58:00,